When you browse on this site, cookies collect data to enhance your experience and personalize the content and advertising you see.
Visit our Privacy Policy to learn more. By continuing to use the site, you agree to this use of cookies and data.
  • en Suisse
  • Liste des pays
  • À 7 jours
  • Température de l'eau
  • Carte satellitaire
  • Carte météo
  • Widgets météo
  • user-avatar
    Se connecter

    Météo par heure à Ayia Napa

    Ce jour, 25 Mars, Lundi

    Heure Température Précipitation Vent Pression Humidité
    00:00 +11°C° 0 mm 10 m/s 750 mmHg 43%
    01:00 +11°C° 0 mm 9 m/s 750 mmHg 44%
    02:00 +9°C° 0 mm 10 m/s 749 mmHg 40%
    03:00 +9°C° 0 mm 10 m/s 750 mmHg 42%
    04:00 +10°C° 0 mm 9 m/s 750 mmHg 43%
    05:00 +9°C° 0 mm 8 m/s 750 mmHg 45%
    06:00 +10°C° 0 mm 8 m/s 750 mmHg 43%
    07:00 +11°C° 0 mm 8 m/s 750 mmHg 41%
    08:00 +12°C° 0 mm 8 m/s 750 mmHg 39%
    09:00 +14°C° 0 mm 7 m/s 750 mmHg 36%
    10:00 +15°C° 0 mm 7 m/s 750 mmHg 32%
    11:00 +16°C° 0 mm 7 m/s 750 mmHg 28%
    12:00 +16°C° 0 mm 6 m/s 750 mmHg 28%
    13:00 +17°C° 0 mm 6 m/s 750 mmHg 28%
    14:00 +19°C° 0 mm 5 m/s 750 mmHg 28%
    15:00 +17°C° 0 mm 5 m/s 750 mmHg 30%
    16:00 +17°C° 0 mm 5 m/s 751 mmHg 33%
    17:00 +17°C° 0 mm 5 m/s 751 mmHg 36%
    18:00 +16°C° 0 mm 5 m/s 751 mmHg 39%
    19:00 +14°C° 0 mm 5 m/s 751 mmHg 43%
    20:00 +13°C° 0 mm 4 m/s 752 mmHg 47%
    21:00 +13°C° 0 mm 4 m/s 752 mmHg 46%
    22:00 +12°C° 0 mm 4 m/s 752 mmHg 46%
    23:00 +11°C° 0 mm 3 m/s 753 mmHg 45%

    Demain, 26 Mars, Mardi

    Heure Température Précipitation Vent Pression Humidité
    00:00 +11°C° 0 mm 3 m/s 753 mmHg 49%
    01:00 +10°C° 0 mm 2 m/s 753 mmHg 52%
    02:00 +10°C° 0 mm 2 m/s 754 mmHg 56%
    03:00 +10°C° 0 mm 2 m/s 754 mmHg 57%
    04:00 +10°C° 0 mm 1 m/s 754 mmHg 57%
    05:00 +10°C° 0 mm 1 m/s 754 mmHg 58%
    06:00 +12°C° 0 mm 1 m/s 754 mmHg 52%
    07:00 +14°C° 0 mm 2 m/s 755 mmHg 46%
    08:00 +16°C° 0 mm 2 m/s 755 mmHg 41%
    09:00 +17°C° 0 mm 3 m/s 755 mmHg 40%
    10:00 +18°C° 0 mm 4 m/s 756 mmHg 39%
    11:00 +19°C° 0 mm 5 m/s 756 mmHg 38%
    12:00 +19°C° 0 mm 6 m/s 756 mmHg 41%
    13:00 +18°C° 0 mm 7 m/s 756 mmHg 44%
    14:00 +18°C° 0 mm 8 m/s 756 mmHg 47%
    15:00 +18°C° 0 mm 8 m/s 756 mmHg 52%
    16:00 +17°C° 0 mm 7 m/s 756 mmHg 56%
    17:00 +16°C° 0 mm 7 m/s 756 mmHg 60%
    18:00 +16°C° 0 mm 6 m/s 756 mmHg 66%
    19:00 +15°C° 0 mm 5 m/s 757 mmHg 71%
    20:00 +14°C° 0 mm 4 m/s 757 mmHg 76%
    21:00 +13°C° 0.1 mm 4 m/s 757 mmHg 79%
    22:00 +13°C° 0.1 mm 3 m/s 757 mmHg 81%
    23:00 +13°C° 0.1 mm 2 m/s 758 mmHg 83%

    Après-demain, 27 Mars, Mercredi

    Heure Température Précipitation Vent Pression Humidité
    00:00 +13°C° 0 mm 2 m/s 757 mmHg 83%
    01:00 +13°C° 0 mm 2 m/s 757 mmHg 83%
    02:00 +12°C° 0 mm 2 m/s 757 mmHg 82%
    03:00 +12°C° 0 mm 2 m/s 757 mmHg 82%
    04:00 +12°C° 0 mm 2 m/s 757 mmHg 82%
    05:00 +12°C° 0 mm 2 m/s 757 mmHg 82%
    06:00 +13°C° 0 mm 2 m/s 758 mmHg 76%
    07:00 +15°C° 0 mm 1 m/s 758 mmHg 71%
    08:00 +16°C° 0 mm 1 m/s 758 mmHg 65%
    09:00 +18°C° 0 mm 1 m/s 759 mmHg 59%
    10:00 +19°C° 0 mm 1 m/s 759 mmHg 53%
    11:00 +20°C° 0 mm 1 m/s 759 mmHg 48%
    12:00 +19°C° 0 mm 2 m/s 759 mmHg 47%
    13:00 +20°C° 0 mm 3 m/s 759 mmHg 46%
    14:00 +20°C° 0 mm 3 m/s 759 mmHg 45%
    15:00 +20°C° 0 mm 4 m/s 759 mmHg 50%
    16:00 +19°C° 0 mm 4 m/s 759 mmHg 54%
    17:00 +19°C° 0 mm 4 m/s 759 mmHg 59%
    18:00 +18°C° 0 mm 3 m/s 760 mmHg 65%
    19:00 +16°C° 0 mm 3 m/s 760 mmHg 71%
    20:00 +15°C° 0 mm 2 m/s 761 mmHg 77%
    21:00 +15°C° 0 mm 2 m/s 761 mmHg 75%
    22:00 +14°C° 0 mm 1 m/s 761 mmHg 73%
    23:00 +14°C° 0 mm 1 m/s 761 mmHg 70%

    28 Mars, Jeudi

    Heure Température Précipitation Vent Pression Humidité
    00:00 +14°C° 0 mm 1 m/s 761 mmHg 72%
    01:00 +13°C° 0 mm 1 m/s 761 mmHg 73%
    02:00 +12°C° 0 mm 1 m/s 761 mmHg 74%
    03:00 +11°C° 0 mm 0 m/s 761 mmHg 74%
    04:00 +11°C° 0 mm 0 m/s 761 mmHg 75%
    05:00 +11°C° 0 mm 0 m/s 761 mmHg 76%
    06:00 +13°C° 0 mm 0 m/s 761 mmHg 68%
    07:00 +16°C° 0 mm 1 m/s 761 mmHg 61%
    08:00 +19°C° 0 mm 1 m/s 761 mmHg 54%
    09:00 +18°C° 0 mm 2 m/s 762 mmHg 53%
    10:00 +19°C° 0 mm 3 m/s 762 mmHg 52%
    11:00 +20°C° 0 mm 4 m/s 762 mmHg 52%
    12:00 +20°C° 0 mm 5 m/s 761 mmHg 53%
    13:00 +20°C° 0 mm 6 m/s 761 mmHg 54%
    14:00 +21°C° 0 mm 6 m/s 761 mmHg 55%
    15:00 +20°C° 0 mm 6 m/s 761 mmHg 56%
    16:00 +20°C° 0 mm 6 m/s 760 mmHg 58%
    17:00 +19°C° 0 mm 5 m/s 760 mmHg 60%
    18:00 +17°C° 0 mm 5 m/s 760 mmHg 65%
    19:00 +17°C° 0 mm 4 m/s 760 mmHg 70%
    20:00 +17°C° 0 mm 4 m/s 761 mmHg 75%
    21:00 +16°C° 0 mm 3 m/s 760 mmHg 76%
    22:00 +16°C° 0 mm 3 m/s 760 mmHg 78%
    23:00 +16°C° 0 mm 2 m/s 760 mmHg 79%

    29 Mars, Vendredi

    Heure Température Précipitation Vent Pression Humidité
    00:00 +16°C° 0 mm 2 m/s 759 mmHg 80%
    01:00 +16°C° 0 mm 1 m/s 759 mmHg 80%
    02:00 +15°C° 0 mm 1 m/s 758 mmHg 80%
    03:00 +15°C° 0 mm 1 m/s 758 mmHg 81%
    04:00 +15°C° 0 mm 1 m/s 758 mmHg 81%
    05:00 +14°C° 0 mm 1 m/s 758 mmHg 82%
    06:00 +15°C° 0.1 mm 2 m/s 758 mmHg 78%
    07:00 +15°C° 0.1 mm 4 m/s 758 mmHg 75%
    08:00 +15°C° 0.1 mm 5 m/s 758 mmHg 71%
    09:00 +15°C° 0.7 mm 5 m/s 757 mmHg 73%
    10:00 +15°C° 0.7 mm 4 m/s 757 mmHg 75%
    11:00 +14°C° 0.7 mm 4 m/s 757 mmHg 77%
    12:00 +15°C° 0.1 mm 4 m/s 756 mmHg 75%
    13:00 +15°C° 0.1 mm 4 m/s 755 mmHg 73%
    14:00 +17°C° 0.1 mm 4 m/s 755 mmHg 71%
    15:00 +17°C° 0.1 mm 4 m/s 754 mmHg 72%
    16:00 +15°C° 0.1 mm 4 m/s 754 mmHg 73%
    17:00 +15°C° 0.1 mm 4 m/s 753 mmHg 75%
    18:00 +15°C° 0.1 mm 5 m/s 753 mmHg 77%
    19:00 +14°C° 0.1 mm 6 m/s 753 mmHg 80%
    20:00 +14°C° 0.1 mm 7 m/s 752 mmHg 82%
    21:00 +13°C° 0.4 mm 8 m/s 751 mmHg 82%
    22:00 +13°C° 0.4 mm 8 m/s 751 mmHg 82%
    23:00 +13°C° 0.4 mm 9 m/s 750 mmHg 82%

    30 Mars, Samedi

    Heure Température Précipitation Vent Pression Humidité
    00:00 +13°C° 0.1 mm 10 m/s 749 mmHg 82%
    01:00 +13°C° 0.1 mm 11 m/s 748 mmHg 83%
    02:00 +13°C° 0.1 mm 11 m/s 747 mmHg 83%
    03:00 +13°C° 0 mm 11 m/s 747 mmHg 83%
    04:00 +13°C° 0 mm 11 m/s 747 mmHg 82%
    05:00 +13°C° 0 mm 11 m/s 746 mmHg 82%
    06:00 +14°C° 0.1 mm 10 m/s 746 mmHg 82%
    07:00 +16°C° 0.1 mm 9 m/s 746 mmHg 82%
    08:00 +16°C° 0.1 mm 7 m/s 746 mmHg 82%
    09:00 +16°C° 0.1 mm 8 m/s 746 mmHg 81%
    10:00 +16°C° 0.1 mm 8 m/s 746 mmHg 81%
    11:00 +16°C° 0.1 mm 9 m/s 746 mmHg 81%
    12:00 +15°C° 1.1 mm 9 m/s 746 mmHg 82%
    13:00 +13°C° 1.1 mm 8 m/s 746 mmHg 83%
    14:00 +12°C° 1.1 mm 8 m/s 746 mmHg 84%
    15:00 +13°C° 0.2 mm 6 m/s 746 mmHg 81%
    16:00 +13°C° 0.2 mm 4 m/s 746 mmHg 78%
    17:00 +13°C° 0.2 mm 3 m/s 746 mmHg 75%
    18:00 +13°C° 0.3 mm 3 m/s 746 mmHg 77%
    19:00 +13°C° 0.3 mm 3 m/s 747 mmHg 79%
    20:00 +13°C° 0.3 mm 3 m/s 747 mmHg 81%
    21:00 +12°C° 0.2 mm 3 m/s 746 mmHg 82%
    22:00 +12°C° 0.2 mm 3 m/s 746 mmHg 83%
    23:00 +11°C° 0.2 mm 3 m/s 746 mmHg 84%
    Voir plus